Regional Weather Roundup
Issued by NWS

Home | Current Version | Previous Version | Graphics & Text | Print | Product List | Glossary On
Versions: 1 2 3 4 5 6 7 8 9 10 11 12 13 14 15 16 17 18 19 20 21 22 23 24 25 26 27 28 29 30 31 32 33 34 35 36 37 38 39 40 41 42 43 44 45 46 47 48 49 50
000
ASUS43 KMKX 020800
RWRWI

WISCONSIN REGIONAL WEATHER ROUNDUP
NATIONAL WEATHER SERVICE MILWAUKEE/SULLIVAN WI
300 AM CDT SAT AUG 02 2014

NOTE: "FAIR" INDICATES FEW OR NO CLOUDS BELOW 12,000 FEET WITH NO
SIGNIFICANT WEATHER AND/OR OBSTRUCTIONS TO VISIBILITY.

WIZ001-002-006>008-014>016-023>028-020900-
NORTHWEST WISCONSIN

CITY           SKY/WX    TMP DP  RH WIND       PRES   REMARKS
SUPERIOR ARPT  CLEAR     55  52  91 CALM      30.12R
ASHLAND        MOCLDY    56  56 100 CALM      30.12R FOG
HAYWARD        PTCLDY    58  56  93 CALM      30.12S
SIREN          PTCLDY    58  56  92 CALM      30.10S
RICE LAKE      MOCLDY    59  57  94 CALM      30.13R FOG
LADYSMITH      CLEAR     58  56  94 CALM      30.14R FOG
EAU CLAIRE     CLEAR     60  59  96 N3        30.10R
MENOMONIE      SUNNY     62  60  95 CALM      30.10R FOG
NEW RICHMOND   CLEAR     63  60  90 CALM      30.11R
OSCEOLA        CLEAR     62  61  95 W3        30.13R
$$

WIZ003>005-009-010-017-018-020900-
NORTH CENTRAL WISCONSIN

CITY           SKY/WX    TMP DP  RH WIND       PRES   REMARKS
WOODRUFF       PTCLDY    52  46  79 CALM      30.14R
RHINELANDER    CLEAR     50  50 100 CALM      30.14R
EAGLE RIVER    MOCLDY    49  49 100 CALM      30.14R FOG
LAND O LAKES   CLEAR     46  46 100 CALM      30.15R FOG
PHILLIPS       CLEAR     53  53  99 CALM      30.13R
TOMAHAWK       CLEAR     47  46  97 CALM      30.14R FOG
MEDFORD          N/A     54  54 100 CALM      30.13R FOG
MERRILL        FOG       51  51 100 CALM      30.12S VSB<1/4
$$

WIZ029-030-035-036-043>047-020900-
CENTRAL WISCONSIN

CITY           SKY/WX    TMP DP  RH WIND       PRES   REMARKS
WAUSAU         CLEAR     57  57 100 N3        30.10S FOG
MOSINEE        CLEAR     55  55 100 W3        30.12F FOG
MARSHFIELD     CLEAR     57  56  96 CALM      30.12S FOG
STEVENS POINT  CLEAR     53  53  99 SW3       30.13R FOG
WAUPACA        CLEAR     57  55  94 CALM      30.12S
WAUTOMA        NOT AVBL
WISC RAPIDS    CLEAR     56  54  93 SW5       30.14R
CAMP DOUGLAS   CLEAR     54  54 100 CALM      30.11F FOG
$$

WIZ011>013-019>022-031-037>040-048>050-020900-
NORTHEAST WISCONSIN

CITY           SKY/WX    TMP DP  RH WIND       PRES   REMARKS
ANTIGO         FOG       51  51  99 CALM      30.12S VSB 3/4
STURGEON BAY   CLEAR     57  55  94 CALM      30.09S
GREEN BAY      CLEAR     59  57  93 W5        30.09S
MANITOWOC      NOT AVBL
APPLETON       CLEAR     55  54  94 W8        30.11S
CLINTONVILLE   CLEAR     55  55 100 W5        30.10R
OSHKOSH        CLEAR     60  56  86 CALM      30.10S
$$

WIZ032>034-041-042-053>061-020900-
SOUTHWEST WISCONSIN

CITY           SKY/WX    TMP DP  RH WIND       PRES   REMARKS
LA CROSSE      CLEAR     63  58  83 E5        30.10S
SPARTA         PTCLDY    56  54  95 CALM      30.12S
VIROQUA        FAIR      60  53  79 W5        30.12F
BOSCOBEL       CLEAR     56  52  86 CALM      30.11S
PRAIRIE DU CHI CLEAR     60  54  82 CALM      30.11S
PLATTEVILLE    FAIR      60  57  89 CALM      30.12S
$$

WIZ056-057-062-063-064-067-068-020900-
SOUTH CENTRAL WISCONSIN

CITY           SKY/WX    TMP DP  RH WIND       PRES   REMARKS
BARABOO/DELLS  CLEAR     56  54  92 CALM      30.11S
LONE ROCK      NOT AVBL
WATERTOWN      CLEAR     59  58  96 CALM      30.10S
MADISON        CLEAR     57  55  93 CALM      30.11R FOG
MIDDLETON      FAIR      58  56  94 CALM      30.11S
MONROE         CLEAR     61  55  82 NW7       30.10S
JANESVILLE     CLEAR     57  54  88 CALM      30.10R
$$

WIZ051-052-058>065-066-070>072-020900-
SOUTHEAST WISCONSIN

CITY           SKY/WX    TMP DP  RH WIND       PRES   REMARKS
MILWAUKEE      PTCLDY    60  55  83 NW7       30.09S
WAUKESHA       CLEAR     57  55  94 W3        30.11R
MILWAUKEE/TIMM CLEAR     59  54  82 CALM      30.10S
RACINE         CLEAR     58  54  86 SW3       30.11R
BURLINGTON     CLEAR     52  52  99 CALM      30.10R FOG
KENOSHA        CLEAR     57  55  93 CALM      30.11R
FOND DU LAC    CLEAR     55  52  89 S5        30.10F
SHEBOYGAN      CLEAR     59  55  87 MISG      30.09S
WEST BEND      CLEAR     59  54  82 CALM      30.10S
JUNEAU         CLEAR     60  55  85 CALM      30.12S
$$

LSZ147-162-020900-
LAKE SUPERIOR

STATION/POSITION TIME  TEMP    WIND        PRES    WAVE
                       AIR SEA DIR/SP/G            HT/PER
                 (UTC) (F)     (DEG/KT/KT) (MB)    (FT/S)
W MID LAKE BUOY  0650   49 46  330/  6/  8 1019.8S   0
PORT WING        0700   56     170/  2/  4 1019.6
SAXON HARBOR     0700             CALM     1019.3S
$$

LMZ867-665-643>646-020900-
LAKE MICHIGAN

STATION/POSITION TIME  TEMP    WIND        PRES    WAVE
                       AIR SEA DIR/SP/G            HT/PER
                 (UTC) (F)     (DEG/KT/KT) (MB)    (FT/S)
N MID LAKE BUOY  0650   61 59   20/  6/  8 1018.5F   0
NORTHPORT PIER   0700   63     120/  3/  3 1018.6F
SISTER BAY       0556   62     140/  5/  9   N/A
ALGOMA LAKESHORE 0636             CALM       N/A
KEWAUNEE LAKESHO 0700   58     290/  3/  4 1017.8F
SHEBOYGAN LAKESH 0700   68     270/  9/ 11 1018.8F
PORT WASHINGTON  0740   63     300/  7/ 12 1019.3S
ATWATER BUOY     0700   64     230/  4     1019.8F
MILWAUKEE LAKESH 0700   64     280/  4/  5   N/A
S MID LAKE BUOY  0650   65 63  110/  2/  2 1018.7F   1
KENOSHA   LAKESH 0700   63     280/  5/  6 1018.6S
$$

TC  - TEMPERATURE IN CELSIUS
VSB - VISIBILITY IN STATUTE MILES
WCI - WIND CHILL INDEX
HX  - HEAT INDEX




USA.gov is the U.S. government's official web portal to all federal, state and local government web resources and services.